Wind_Speed
42 43 44 45 46 46 47 47 47 47 46 46 46 46 45 45 46 45 45 46 47 47 47 47 47 46 46 46 47 47 47 47 47 47 47 47 46 46 45 44 44 44 43
43 43 43 45 46 46 47 48 49 49 48 47 47 47 47 47 47 47 46 47 47 48 48 48 48 47 48 47 48 48 48 48 48 49 49 49 49 48 48 47 46 46 46
42 42 42 43 45 46 47 48 49 50 49 48 48 48 48 48 48 48 48 48 47 48 48 49 48 47 48 48 48 49 49 49 49 50 50 50 50 50 50 49 49 48 48
41 41 42 43 44 45 46 46 48 49 49 49 49 49 49 49 48 49 48 48 49 49 49 49 49 49 49 49 49 50 50 50 50 50 50 51 51 51 51 50 50 50 50
41 41 41 42 43 44 45 45 46 47 48 49 49 49 49 49 49 49 49 49 50 50 50 50 50 50 50 50 51 51 51 52 51 51 51 51 52 52 51 51 51 52 52
41 41 41 42 42 43 44 44 45 46 46 47 48 49 50 50 50 50 50 49 50 50 49 50 51 51 51 51 52 52 52 52 51 51 52 52 52 52 52 52 53 53 53
40 40 40 40 41 42 42 44 44 45 46 47 47 48 50 51 51 50 50 50 50 50 50 50 52 51 50 51 51 52 52 52 52 51 52 52 52 52 52 53 53 53 53
38 39 39 40 41 42 42 43 43 44 45 46 46 47 48 49 50 50 50 50 51 51 51 51 53 52 52 52 52 52 52 52 51 51 52 52 51 51 52 52 52 53 54
37 37 38 38 40 41 41 42 43 43 44 45 45 46 46 48 48 49 50 51 51 51 52 52 53 53 53 52 52 52 52 52 52 51 51 50 50 51 51 51 52 53 53
36 37 37 38 38 39 40 41 42 43 43 44 45 45 46 47 48 49 49 49 50 50 51 51 52 52 52 52 51 51 50 51 51 51 51 51 51 52 52 51 52 53 54
36 36 37 37 37 38 40 40 41 42 43 44 44 45 46 47 48 49 49 50 50 50 51 51 52 52 52 51 50 50 50 50 50 51 51 51 52 52 52 52 53 53 53
36 36 36 36 37 37 38 40 41 41 42 43 44 45 45 46 47 48 49 49 50 50 51 51 51 51 51 52 51 51 51 50 50 51 51 51 52 53 53 53 54 54 54
36 36 36 36 37 37 38 39 39 40 40 41 42 43 43 44 45 47 47 48 49 50 50 49 49 50 51 51 51 51 51 52 52 52 52 52 52 53 54 54 54 54 54
35 35 36 36 36 37 38 38 39 39 40 40 40 41 42 43 43 45 46 47 48 49 49 50 49 50 51 51 51 52 51 51 52 52 52 53 53 53 54 54 54 55 55
35 35 35 36 36 36 37 38 39 39 40 40 40 41 42 43 43 44 45 47 48 49 49 50 50 50 51 52 52 52 52 51 52 53 53 53 53 54 54 54 54 55 55
34 35 35 36 36 36 37 37 38 39 39 40 40 41 42 43 43 44 45 47 47 48 49 50 50 51 51 52 52 52 52 52 53 53 54 53 53 54 54 54 54 54 54
35 35 35 36 37 37 37 37 38 39 40 40 41 42 43 44 44 44 45 46 47 48 49 50 51 51 52 52 53 53 53 53 53 53 53 54 54 54 54 54 54 53 53
35 35 36 36 36 37 38 38 38 39 40 40 42 43 44 44 44 46 46 47 47 47 48 49 50 51 52 52 52 53 53 53 52 52 52 53 53 54 54 54 54 53 54
35 35 36 36 37 37 39 40 39 39 40 41 42 43 44 44 44 46 47 48 48 48 48 48 49 50 50 51 51 52 52 51 51 52 52 52 53 54 54 54 53 52 52
35 35 36 36 37 38 38 39 40 41 40 41 42 43 43 43 44 45 46 46 47 48 48 48 48 49 50 50 50 51 51 51 51 51 51 51 51 52 52 52 52 52 51
36 37 37 37 37 38 38 39 39 40 40 41 42 43 43 44 44 44 45 45 45 46 46 47 47 47 48 48 48 49 50 50 50 50 50 50 51 50 51 51 51 51 51
36 37 37 38 38 38 38 38 39 40 41 41 41 42 43 44 45 45 45 45 45 45 44 45 45 45 46 46 47 47 48 49 49 49 50 50 49 49 49 50 49 50 50
38 37 37 37 38 38 39 39 39 40 40 41 41 42 43 44 44 45 44 44 44 44 44 44 44 44 45 45 46 47 48 48 48 48 48 49 48 47 47 48 48 48 49
38 38 38 38 38 39 39 39 39 39 39 39 40 41 42 42 42 42 42 42 42 42 43 43 44 44 44 44 45 45 46 46 46 46 46 46 47 47 46 46 47 47 47
38 38 38 38 38 39 39 40 40 39 38 38 38 39 40 40 40 40 40 41 41 42 42 42 43 43 43 43 44 44 44 44 44 44 44 45 45 45 45 45 46 46 45
37 37 37 38 38 39 39 39 39 39 38 38 38 38 39 39 39 39 39 39 39 40 41 41 42 41 42 42 43 42 42 43 43 42 42 42 43 44 44 44 44 44 44
Wind_Direction
264 263 261 259 257 255 254 254 254 255 255 254 254 253 254 253 253 253 254 254 254 253 253 253 254 254 254 255 255 255 255 255 255 256 257 256 256 256 257 257 257 257 257
265 264 262 259 257 255 254 254 254 253 254 254 254 253 254 253 254 254 254 254 254 254 253 253 254 254 255 256 257 257 257 256 257 257 257 257 256 256 257 257 258 258 258
267 265 263 261 259 256 254 253 253 253 253 252 253 253 253 254 254 255 255 255 254 254 254 254 253 254 255 256 257 258 258 258 258 258 258 257 257 257 257 257 258 258 259
267 266 264 263 260 257 255 254 253 253 252 252 252 253 254 253 253 254 254 254 255 254 254 254 254 255 256 257 257 258 258 259 260 259 258 258 258 257 257 257 258 259 259
268 267 266 264 262 259 256 254 253 253 253 252 253 253 253 253 253 253 253 254 254 254 254 255 254 255 256 257 258 258 259 259 259 259 260 260 260 259 258 257 258 259 260
270 269 267 265 263 261 259 255 254 254 253 254 254 254 254 253 253 253 253 254 254 253 254 255 255 255 257 258 259 259 259 259 259 260 261 261 261 260 258 259 259 260 260
272 270 268 266 263 261 260 257 256 255 254 254 255 255 255 255 254 254 253 254 253 253 254 255 255 255 256 257 259 259 259 260 260 261 261 261 261 260 259 260 260 260 261
274 272 270 268 265 262 261 258 256 257 256 255 255 255 255 255 255 255 254 254 254 254 254 255 255 255 257 258 258 259 260 261 261 261 261 261 260 260 260 261 260 260 260
274 272 270 268 266 263 262 259 257 257 256 256 255 254 255 256 256 256 256 255 255 255 255 256 256 256 257 258 259 259 260 260 260 261 260 259 260 262 262 261 261 261 261
274 271 269 267 265 264 262 260 257 257 257 257 256 255 255 256 256 256 256 256 256 256 256 256 256 256 257 257 258 259 260 260 259 259 259 259 261 262 262 262 261 262 262
275 272 270 268 266 265 264 262 259 258 259 259 258 257 257 256 256 257 257 256 256 256 256 256 256 256 257 257 258 258 258 259 259 260 261 262 261 262 261 261 262 262 263
277 275 272 270 269 268 266 264 262 261 261 261 260 259 259 259 257 257 257 257 257 257 257 257 257 257 259 259 259 258 258 259 260 261 262 262 262 262 262 262 263 263 264
277 275 273 272 271 270 269 267 265 263 263 262 261 260 259 259 259 258 258 258 258 258 258 257 258 258 259 260 260 260 260 260 261 262 263 263 263 263 264 263 263 264 264
277 276 274 273 273 271 270 269 267 265 264 264 263 261 259 260 260 259 258 259 259 258 258 258 258 259 259 259 259 260 261 262 262 262 263 263 264 264 265 264 264 265 264
277 276 274 273 273 272 271 270 269 267 265 264 263 262 261 260 261 260 259 259 260 259 258 259 258 259 260 259 260 261 262 262 263 263 263 264 265 265 265 265 265 265 264
278 276 274 272 271 271 271 270 269 268 266 265 264 263 263 262 262 262 262 261 261 260 259 259 258 259 260 260 260 261 262 263 263 263 263 264 265 264 265 266 266 265 264
279 277 275 273 271 270 270 271 270 268 266 266 265 265 265 264 263 264 263 263 262 262 262 260 259 259 261 261 261 262 263 263 263 263 263 264 264 264 264 265 264 264 264
281 278 277 275 273 272 271 271 272 270 267 266 266 266 266 266 265 264 264 264 264 263 263 262 261 261 261 262 262 263 263 263 262 262 262 263 263 264 264 264 263 263 263
283 279 278 276 276 274 273 272 272 272 271 269 268 268 267 267 267 266 265 264 263 263 264 264 263 263 262 263 263 263 263 263 262 262 263 263 263 263 263 263 263 263 263
284 282 280 278 277 276 275 274 274 273 273 272 270 269 269 269 268 267 267 266 265 264 265 265 265 264 263 263 263 263 263 263 263 262 263 263 262 262 262 262 262 262 262
285 283 282 280 278 277 276 275 275 274 273 273 273 272 271 270 269 269 268 267 266 266 265 265 265 265 264 264 264 264 264 264 264 264 264 263 263 262 261 262 261 261 262
286 285 283 281 279 278 278 278 276 275 274 273 273 273 273 272 271 270 269 268 267 266 266 266 265 265 265 265 265 266 266 265 265 265 264 263 263 262 261 261 262 262 262
286 286 285 283 280 279 279 279 278 277 275 274 273 273 274 273 273 271 270 269 268 267 266 265 265 265 265 265 265 266 266 266 267 266 264 262 261 261 261 261 262 262 261
287 286 285 284 282 280 279 280 280 279 277 277 275 275 275 274 274 272 271 270 268 268 267 266 266 266 266 265 265 265 265 265 265 265 263 262 260 260 261 261 261 262 262
287 287 285 284 283 282 281 280 280 279 278 278 278 277 276 275 274 273 272 271 270 269 268 268 267 267 266 265 265 264 263 263 264 264 263 262 261 261 261 261 261 261 261
288 287 287 286 286 284 283 282 280 278 277 277 277 278 277 275 274 272 272 272 272 271 270 269 269 268 266 265 263 263 263 263 264 264 264 263 262 261 262 261 260 260 261
Height
5665 5667 5668 5669 5671 5673 5675 5678 5680 5682 5684 5686 5689 5691 5693 5695 5697 5699 5701 5704 5706 5708 5710 5712 5715 5717 5720 5722 5724 5726 5729 5731 5734 5736 5738 5740 5743 5745 5747 5749 5751 5753 5755
5653 5654 5655 5656 5658 5661 5663 5665 5667 5670 5672 5674 5677 5679 5681 5683 5686 5688 5690 5692 5694 5696 5699 5701 5703 5706 5708 5711 5713 5715 5717 5719 5721 5724 5726 5728 5732 5734 5736 5738 5740 5742 5744
5641 5641 5642 5644 5645 5647 5650 5652 5654 5656 5659 5661 5664 5667 5669 5671 5673 5675 5677 5679 5681 5684 5686 5689 5692 5694 5696 5699 5701 5703 5705 5707 5708 5710 5713 5715 5718 5721 5723 5725 5728 5730 5732
5629 5630 5631 5632 5633 5635 5637 5639 5641 5643 5646 5649 5651 5654 5656 5659 5661 5663 5665 5667 5669 5671 5674 5677 5679 5682 5684 5686 5688 5690 5692 5694 5695 5697 5699 5702 5704 5707 5710 5713 5715 5717 5719
5618 5619 5620 5620 5621 5623 5624 5627 5629 5631 5634 5636 5639 5641 5644 5646 5649 5651 5653 5655 5657 5659 5662 5664 5667 5669 5672 5674 5676 5677 5679 5681 5682 5684 5686 5688 5690 5692 5696 5700 5702 5704 5706
5607 5607 5608 5608 5609 5611 5612 5614 5617 5619 5621 5623 5626 5628 5631 5633 5636 5638 5640 5642 5645 5647 5649 5652 5654 5657 5659 5661 5663 5664 5666 5668 5669 5671 5673 5674 5676 5678 5681 5684 5687 5690 5693
5596 5596 5596 5597 5597 5599 5600 5602 5604 5607 5609 5611 5613 5615 5618 5620 5623 5625 5627 5630 5632 5634 5637 5639 5641 5644 5646 5648 5649 5651 5653 5654 5656 5657 5659 5660 5662 5664 5667 5669 5672 5675 5678
5586 5585 5586 5586 5586 5587 5588 5590 5592 5594 5596 5598 5600 5603 5605 5607 5609 5612 5614 5616 5619 5621 5624 5626 5628 5630 5632 5634 5636 5638 5639 5641 5642 5643 5645 5646 5648 5650 5652 5655 5657 5660 5663
5576 5575 5575 5575 5575 5576 5577 5578 5580 5582 5584 5586 5588 5590 5592 5594 5596 5598 5601 5603 5605 5608 5610 5612 5614 5617 5619 5620 5622 5623 5625 5627 5628 5629 5631 5633 5635 5637 5638 5640 5642 5646 5648
5565 5565 5564 5564 5564 5565 5566 5567 5568 5570 5572 5573 5575 5577 5579 5581 5583 5585 5587 5589 5591 5593 5596 5598 5600 5603 5605 5606 5608 5609 5611 5613 5614 5616 5618 5619 5621 5623 5624 5626 5627 5630 5632
5555 5554 5554 5554 5554 5555 5555 5556 5557 5558 5559 5561 5562 5564 5566 5568 5569 5571 5573 5575 5577 5579 5581 5584 5587 5589 5590 5592 5594 5596 5597 5599 5601 5602 5604 5605 5607 5608 5610 5611 5613 5615 5617
5545 5544 5544 5544 5544 5544 5544 5545 5545 5546 5547 5548 5549 5551 5552 5554 5556 5558 5560 5562 5564 5566 5568 5570 5572 5574 5576 5578 5580 5582 5583 5585 5587 5588 5590 5591 5592 5594 5595 5597 5598 5600 5601
5535 5534 5534 5534 5533 5533 5533 5534 5534 5535 5535 5536 5537 5538 5540 5541 5542 5544 5546 5548 5550 5552 5554 5556 5558 5560 5562 5564 5566 5568 5569 5571 5572 5574 5575 5576 5577 5579 5580 5582 5583 5585 5586
5525 5524 5523 5523 5523 5523 5523 5522 5523 5523 5524 5524 5525 5526 5527 5529 5529 5530 5532 5534 5536 5538 5540 5542 5544 5546 5547 5549 5551 5553 5555 5557 5558 5559 5560 5562 5563 5564 5565 5566 5568 5569 5571
5515 5514 5513 5513 5512 5512 5511 5511 5511 5511 5512 5512 5513 5514 5515 5516 5516 5517 5519 5520 5522 5523 5525 5527 5529 5531 5533 5535 5537 5539 5541 5542 5543 5544 5545 5546 5547 5548 5550 5551 5553 5554 5555
5505 5504 5503 5502 5502 5501 5500 5500 5500 5500 5500 5500 5501 5501 5502 5502 5503 5504 5505 5506 5507 5509 5510 5512 5515 5516 5518 5520 5522 5524 5525 5527 5528 5529 5530 5531 5532 5533 5534 5535 5537 5538 5540
5495 5493 5492 5491 5490 5490 5489 5489 5489 5488 5488 5488 5488 5489 5489 5489 5490 5491 5491 5492 5493 5494 5496 5497 5499 5501 5503 5504 5506 5508 5509 5511 5512 5513 5514 5515 5516 5517 5518 5520 5521 5522 5524
5485 5483 5482 5480 5479 5479 5478 5478 5477 5477 5477 5476 5476 5476 5476 5476 5477 5477 5477 5478 5478 5479 5480 5482 5484 5486 5487 5488 5490 5491 5493 5494 5495 5497 5498 5499 5500 5501 5502 5504 5505 5507 5509
5475 5473 5471 5470 5469 5468 5467 5466 5466 5465 5465 5464 5464 5463 5463 5463 5463 5463 5463 5463 5464 5465 5466 5467 5469 5470 5472 5473 5474 5475 5476 5478 5480 5481 5482 5483 5484 5485 5486 5488 5490 5492 5493
5465 5463 5461 5460 5458 5456 5455 5455 5454 5453 5452 5452 5451 5450 5449 5449 5449 5449 5449 5449 5449 5450 5451 5453 5454 5455 5456 5457 5458 5459 5460 5462 5464 5465 5466 5468 5469 5470 5470 5472 5474 5477 5478
5455 5453 5451 5449 5447 5445 5444 5443 5442 5441 5440 5439 5438 5437 5436 5436 5435 5435 5435 5435 5435 5436 5437 5439 5439 5440 5441 5442 5443 5443 5444 5446 5448 5449 5451 5452 5453 5455 5456 5457 5459 5461 5463
5445 5442 5440 5438 5436 5434 5433 5431 5430 5428 5427 5426 5425 5424 5423 5422 5422 5421 5421 5421 5421 5422 5423 5424 5425 5425 5426 5427 5428 5428 5429 5430 5432 5434 5435 5437 5438 5440 5441 5442 5444 5446 5447
5434 5432 5429 5427 5425 5423 5421 5419 5418 5416 5414 5413 5412 5411 5410 5409 5408 5407 5407 5407 5407 5408 5409 5409 5410 5411 5412 5412 5413 5414 5415 5416 5417 5419 5420 5422 5423 5425 5427 5428 5429 5431 5433
5423 5421 5418 5416 5414 5411 5409 5407 5405 5404 5402 5401 5399 5398 5397 5395 5394 5394 5394 5394 5394 5394 5395 5395 5396 5397 5398 5398 5399 5399 5401 5402 5403 5404 5406 5408 5409 5411 5413 5414 5415 5417 5419
5412 5409 5407 5404 5402 5399 5397 5395 5393 5391 5390 5388 5387 5385 5384 5383 5382 5381 5381 5381 5381 5381 5382 5382 5382 5383 5384 5384 5385 5385 5387 5389 5390 5391 5392 5394 5396 5398 5399 5401 5402 5403 5405
5401 5398 5395 5393 5390 5387 5385 5383 5380 5379 5377 5376 5374 5373 5372 5370 5370 5369 5369 5368 5369 5369 5368 5369 5369 5369 5370 5370 5371 5372 5374 5375 5376 5378 5380 5381 5382 5384 5386 5387 5389 5390 5392